GFSNW_925_temp_114.txt.gz
Temp
10 11 11 11 12 12 10 9 8 9 9 7 6 6 11 12 13 13 13 13 13 14 13 13 12 12 13 13 13 13 13 11 9 11 12 12 12 11 11 9 11 10 10 11
10 11 11 11 11 11 11 9 9 9 8 8 5 12 12 13 12 13 13 13 13 14 14 13 13 13 13 14 13 13 12 11 8 10 11 13 12 12 12 10 9 10 9 10
9 10 12 12 12 12 12 8 8 8 7 7 11 13 13 13 13 14 14 14 14 14 14 13 13 12 13 13 12 12 12 10 10 10 12 11 11 11 11 11 7 9 9 10
9 9 11 13 13 13 12 6 7 9 8 11 11 12 13 13 13 13 14 14 13 13 14 14 13 13 12 12 12 12 11 10 9 10 10 10 11 11 11 10 12 11 12 10
9 9 10 12 14 14 12 9 8 6 8 10 13 11 12 13 13 13 13 13 13 13 13 13 12 13 11 11 11 11 9 10 9 7 10 10 9 10 11 11 12 11 12 12
9 9 9 10 13 14 10 8 9 8 9 10 10 11 12 12 12 13 13 13 12 13 13 12 12 11 9 11 10 9 9 8 7 8 9 9 10 11 11 11 10 13 12 13
9 9 9 9 10 12 11 8 7 8 10 10 11 12 12 12 12 13 13 12 12 12 10 10 9 9 9 8 9 9 9 9 6 6 8 10 14 13 12 11 12 12 13 13
8 9 9 9 9 9 10 8 8 6 9 8 11 12 12 12 11 11 12 12 11 9 11 10 10 9 11 11 10 9 9 8 7 7 7 10 14 12 12 12 12 12 13 13
7 8 8 8 9 9 9 8 8 6 7 9 10 11 12 10 9 9 11 11 10 10 8 9 12 11 12 11 10 9 8 8 8 8 10 12 14 14 13 13 12 13 11 11
7 7 8 8 8 9 9 8 8 8 6 6 10 9 10 9 8 8 8 11 10 9 7 9 9 8 11 11 10 8 8 7 7 7 7 8 10 12 13 15 15 14 13 11
8 7 7 8 7 8 9 8 8 7 4 5 9 10 9 8 7 9 9 9 8 7 9 9 8 8 9 10 10 8 7 6 6 6 7 8 10 11 13 13 12 13 14 14
8 8 7 7 8 8 8 8 7 7 5 6 8 9 9 10 10 7 7 9 8 8 7 6 6 8 6 7 10 8 9 9 8 8 9 10 9 11 11 10 11 13 13 11
9 8 8 7 7 7 7 7 6 6 4 4 6 7 8 8 8 8 8 6 7 7 5 6 6 8 6 8 6 9 10 8 9 11 11 11 11 11 10 10 9 10 10 10
8 8 8 8 7 7 6 6 5 5 4 5 6 7 7 7 7 7 8 7 7 6 5 6 6 7 7 7 8 7 9 9 9 7 11 12 12 11 10 9 8 8 8 9
7 7 8 8 7 7 6 5 5 5 6 6 5 5 5 5 6 6 6 7 5 5 6 5 6 5 6 5 5 4 7 10 9 11 12 10 11 10 10 10 11 10 9 9
7 7 7 7 6 6 6 5 6 5 5 4 5 4 4 5 5 5 5 5 4 4 5 4 4 5 7 5 5 7 7 8 9 11 8 8 9 7 8 9 9 8 8 7
6 7 7 7 6 6 6 6 5 5 5 4 5 4 4 4 4 3 3 4 3 3 4 4 4 5 6 5 5 9 8 7 7 7 6 9 9 8 8 7 7 8 8 7
6 6 6 6 6 5 5 4 5 5 5 4 3 4 4 4 3 4 2 2 2 3 3 3 5 5 4 5 6 6 7 7 7 6 6 6 6 5 6 7 6 6 5 4
5 6 6 6 5 4 4 4 4 4 4 4 4 4 5 3 3 3 2 2 4 3 4 3 4 4 5 6 6 6 7 6 6 6 4 4 4 5 5 4 4 4 4 3
6 6 5 4 4 3 4 3 2 0 1 0 3 1 4 3 3 4 4 3 5 5 5 4 4 4 5 6 6 6 6 5 4 3 4 3 3 3 4 4 3 3 3 2
6 4 3 3 3 3 2 3 4 3 4 2 3 1 2 2 3 3 3 1 4 5 4 5 5 4 5 6 5 4 3 3 2 2 2 2 2 1 2 2 3 2 2 2
5 5 4 3 2 3 4 4 3 4 5 2 2 2 1 2 1 3 2 2 4 4 1 4 4 3 5 5 5 3 3 2 2 2 2 2 2 2 1 0 1 2 3 3
4 4 2 3 3 4 4 1 4 3 0 -0 -0 1 2 1 1 2 2 3 3 1 -1 2 2 4 4 4 3 3 2 2 1 2 3 3 2 3 2 1 2 3 3 4
3 3 4 4 3 4 2 0 -0 1 -1 -1 1 -0 1 1 1 2 3 3 2 -1 3 3 2 4 5 3 3 3 3 3 1 1 2 1 1 1 3 3 4 3 2 4
2 3 4 4 3 -2 -1 -2 -1 -1 0 0 0 -0 1 -0 1 2 2 3 3 -0 2 2 1 4 5 5 4 3 3 3 2 3 1 1 2 2 2 4 4 3 3 3
2 2 3 3 3 4 0 -4 -2 -2 -0 -2 -1 -1 -1 1 0 3 4 2 2 2 -1 -1 0 4 3 6 4 3 3 2 3 4 4 4 4 3 3 5 5 5 3 2
2 2 2 1 -2 -0 0 0 1 -0 0 1 -0 1 2 -1 3 3 1 -0 1 0 3 -3 1 3 4 3 2 2 3 3 4 4 4 3 4 4 2 -1 4 5 4 5

GFSNW_925_temp_117.txt.gz
Temp
9 10 10 10 11 11 10 8 9 9 9 7 5 5 11 12 12 12 13 12 13 13 12 13 12 12 12 13 13 13 12 10 8 11 12 11 11 11 10 9 10 9 9 11
10 10 10 11 11 11 10 8 8 9 8 8 5 11 12 12 12 13 13 13 13 13 13 12 12 12 12 13 12 12 12 10 7 10 11 11 11 10 10 9 8 9 9 11
9 10 10 10 12 12 11 7 8 8 6 6 10 12 12 13 13 13 13 13 13 14 13 12 12 12 13 12 12 12 11 9 10 10 12 10 11 11 10 10 7 9 9 10
9 10 10 11 12 13 12 5 7 8 8 10 11 12 13 13 13 13 13 13 13 13 13 13 12 12 12 12 12 11 10 10 8 9 9 10 10 11 10 9 11 11 11 10
9 9 10 11 11 11 11 8 8 6 7 8 12 10 12 12 12 13 13 13 13 13 13 12 11 11 11 11 10 11 8 9 9 6 9 8 9 9 10 10 11 11 11 12
9 9 10 11 11 11 9 7 8 8 8 9 10 10 12 12 12 12 12 12 12 12 12 12 11 10 9 10 9 9 8 8 7 8 8 8 9 9 10 10 9 12 11 13
9 9 9 10 11 11 9 7 7 8 10 9 10 12 12 12 12 12 12 12 12 12 10 9 9 9 9 9 9 8 7 8 6 6 7 10 13 11 10 10 11 11 12 13
8 9 9 9 10 10 10 8 7 6 9 8 10 11 12 11 10 11 11 12 10 8 10 9 10 9 10 10 9 8 8 7 7 6 6 10 14 12 10 11 13 11 11 12
8 8 9 9 9 10 10 8 7 6 7 8 11 10 11 9 8 9 11 10 9 8 7 9 12 11 12 10 9 6 7 7 7 7 9 12 14 13 12 13 12 14 10 10
8 8 8 9 9 9 9 8 8 7 6 6 9 9 9 7 7 8 8 10 9 8 7 9 9 8 10 10 9 7 7 6 7 7 7 8 9 11 13 15 15 13 12 13
8 8 8 8 8 9 9 8 8 7 4 5 8 9 9 7 7 9 8 8 7 6 9 8 8 8 8 9 9 7 7 6 6 6 7 9 9 10 13 13 12 13 13 13
8 8 8 8 8 8 9 8 7 7 5 6 7 8 8 8 9 7 6 8 7 7 6 6 5 8 5 7 10 7 9 9 8 8 9 10 9 10 11 10 10 10 11 10
8 8 7 7 8 8 8 7 6 6 3 5 6 6 7 7 7 8 8 6 7 6 5 5 6 8 5 8 6 8 8 7 8 10 12 9 10 9 9 10 9 9 8 7
8 8 7 7 7 7 7 6 5 5 4 5 6 7 6 6 7 7 7 7 6 5 4 6 6 8 7 6 7 7 8 8 8 7 9 10 11 10 9 9 8 7 7 7
7 7 7 7 7 7 7 6 5 5 6 6 5 5 5 5 6 6 6 6 5 5 6 5 6 4 5 4 4 4 6 9 8 9 9 8 10 8 7 8 8 8 7 7
7 7 7 7 7 7 6 4 6 5 6 4 5 4 4 5 5 5 4 4 3 3 5 4 4 4 6 5 5 7 6 7 7 8 7 7 7 8 7 6 7 7 6 6
7 6 6 7 7 6 6 5 5 5 5 4 4 4 4 4 4 2 2 3 2 3 4 4 4 5 5 5 5 8 8 7 6 6 5 7 7 7 6 5 5 6 6 6
7 6 6 6 6 5 5 4 4 4 5 3 2 4 4 4 3 3 1 2 2 2 3 3 4 4 4 5 6 7 7 6 7 6 6 5 5 4 4 4 4 4 4 4
5 5 6 5 5 4 4 4 4 4 4 2 3 3 3 3 2 2 2 2 3 2 4 3 4 4 5 6 6 6 6 6 6 5 3 3 3 3 3 3 3 3 3 3
5 5 5 3 4 3 3 3 2 0 0 -0 3 1 3 2 2 3 3 2 3 3 4 3 4 5 5 6 6 5 5 4 2 3 4 3 3 3 2 2 2 1 1 1
5 4 2 3 3 3 2 3 3 3 4 2 2 1 1 1 2 3 2 1 4 5 4 4 5 5 5 6 5 4 3 1 1 1 1 1 0 1 1 1 0 1 1 1
5 5 4 3 2 3 3 2 3 4 5 2 1 1 1 1 0 3 2 2 4 4 1 4 4 3 4 5 5 4 2 2 2 3 2 2 2 2 0 -0 -0 1 3 3
5 5 2 3 2 4 4 3 4 4 0 -1 -0 0 1 0 1 1 1 3 3 0 2 3 2 4 4 4 3 3 3 3 3 3 4 4 3 4 3 1 3 3 3 3
2 4 2 3 2 4 2 1 1 1 -1 -1 0 -1 0 0 1 1 2 2 1 3 3 3 1 3 5 4 3 3 4 3 2 1 3 2 2 2 4 3 5 3 2 4
2 3 2 1 1 -1 0 -1 -1 -1 0 0 0 -0 1 -1 1 2 2 3 4 2 3 2 -1 3 4 3 3 4 3 2 2 3 2 2 3 2 2 5 5 4 4 3
2 2 2 1 3 1 1 0 -1 -1 -0 -2 -1 -1 -1 0 0 3 4 4 4 3 -0 -1 -0 3 3 3 2 2 3 3 3 3 3 3 3 2 3 3 3 4 3 3
1 2 1 -1 -2 0 -0 2 1 0 1 2 1 1 2 -1 1 2 1 1 1 0 -1 -2 -1 -1 3 2 2 2 2 2 2 2 2 2 3 3 0 -1 3 3 3 3

GFSNW_925_temp_120.txt.gz
Temp
9 9 10 11 9 10 10 8 8 8 8 7 4 5 11 12 12 12 12 12 13 12 12 12 11 11 12 12 12 12 11 9 8 11 12 11 11 10 9 9 10 8 8 10
9 9 10 10 11 9 10 7 7 9 8 7 5 10 12 12 12 12 13 13 13 13 12 12 11 11 12 12 12 11 11 10 7 10 11 10 11 9 9 8 8 9 8 11
9 9 10 11 12 11 9 7 8 8 5 5 10 11 12 12 12 13 13 13 13 13 13 11 11 11 12 12 12 12 11 9 10 10 12 10 10 10 9 10 6 8 8 9
9 9 10 11 12 12 9 5 7 7 7 9 10 10 12 12 12 12 11 13 12 13 13 12 12 11 11 11 11 10 9 10 7 8 8 9 10 10 9 9 10 10 10 8
9 9 10 10 11 12 10 8 8 5 7 8 11 10 11 12 12 12 12 13 12 12 12 12 12 11 11 11 10 10 7 9 8 6 9 7 8 8 8 9 10 10 11 11
9 9 9 10 10 10 9 6 7 7 7 8 10 10 11 12 11 12 12 12 11 12 12 11 10 9 7 10 9 8 8 8 7 8 8 7 9 8 8 9 8 10 10 13
8 9 9 10 10 11 10 7 7 8 10 7 9 10 11 10 11 12 11 11 11 11 9 8 8 7 8 9 8 7 7 7 5 6 7 10 13 10 10 9 10 9 11 12
8 8 9 9 9 10 10 8 7 6 9 6 9 10 11 10 10 11 11 11 9 8 9 8 9 8 10 8 7 7 7 7 6 6 6 9 13 10 9 11 14 9 10 10
8 8 8 9 9 9 9 8 7 5 7 8 9 9 10 8 8 8 10 9 8 7 6 8 11 11 11 9 8 5 6 6 7 6 9 13 14 13 11 12 12 13 9 11
8 8 8 8 9 9 9 8 7 7 6 6 8 8 9 6 6 7 7 9 9 7 7 9 9 8 9 10 9 7 7 6 7 7 7 8 9 11 11 15 14 12 11 11
8 8 8 8 8 9 9 8 8 7 4 5 7 9 8 6 6 8 7 8 7 6 8 8 7 8 7 8 8 6 7 5 6 7 7 9 9 10 14 12 10 11 9 9
8 8 8 8 8 8 9 8 7 7 5 6 6 7 7 8 8 6 5 8 7 7 6 5 5 8 4 6 10 6 8 8 7 7 8 9 9 10 11 9 8 8 7 8
7 8 8 8 8 8 8 7 6 6 4 5 5 6 6 7 7 7 7 5 6 6 5 5 5 8 6 8 6 8 7 6 8 9 11 9 9 8 8 8 9 8 7 6
7 7 7 7 7 7 7 7 6 5 4 6 7 6 6 6 6 6 7 6 5 5 4 6 6 8 6 6 7 6 8 6 7 7 9 9 11 9 8 8 7 6 6 6
7 7 7 7 7 7 6 6 6 6 5 6 5 5 5 5 5 6 6 6 5 5 6 5 7 5 5 4 4 4 5 8 8 8 8 7 7 7 6 5 5 6 5 5
7 6 6 7 7 7 6 4 6 5 6 3 4 3 4 4 4 4 4 4 3 3 5 5 4 4 6 5 6 7 6 6 7 7 7 6 6 5 6 4 5 4 4 4
7 6 6 6 7 6 6 5 5 5 5 3 4 3 3 4 3 2 2 3 1 3 3 4 4 5 5 5 6 8 7 8 6 5 5 5 6 5 4 3 4 4 4 4
6 6 6 6 6 5 5 4 5 4 4 2 0 2 3 3 2 3 0 2 2 2 3 2 4 4 3 5 6 7 7 6 6 5 5 4 4 3 3 3 3 3 3 3
6 5 6 5 5 4 4 4 4 4 3 2 3 3 2 2 1 1 2 1 3 1 3 3 3 4 4 6 6 7 6 5 4 3 3 3 3 3 2 1 2 1 2 2
5 5 5 4 4 3 4 3 2 0 -0 -0 3 2 3 1 1 2 2 1 2 0 3 2 3 4 4 5 5 5 4 4 3 4 4 3 3 2 2 2 1 0 0 0
5 4 2 3 3 3 2 2 3 3 4 3 2 2 1 1 2 3 2 1 3 5 2 4 4 4 4 5 5 4 3 3 2 1 1 1 0 0 1 2 1 1 1 1
5 5 3 3 2 3 2 1 3 4 5 2 1 2 1 1 0 3 2 2 4 4 1 4 4 3 4 4 6 6 3 3 2 3 2 3 3 3 1 1 1 2 3 2
5 4 2 1 2 3 3 1 4 4 3 -1 0 1 1 0 1 1 2 3 4 0 3 3 2 3 3 4 4 3 3 2 2 2 3 3 3 4 2 1 3 3 2 4
3 2 2 2 2 0 1 1 0 0 -1 -2 -1 -1 0 0 1 1 3 2 2 3 3 2 0 2 3 3 2 2 2 2 0 1 3 2 2 2 3 3 4 3 2 4
2 2 2 -0 0 -2 0 -2 -1 -2 -1 -1 -0 -0 0 -0 1 3 3 3 4 4 2 1 -2 2 2 3 2 2 2 2 1 3 2 2 2 1 2 2 3 3 1 1
1 1 1 0 -0 -1 -1 -1 -0 -2 0 -1 0 -1 -2 0 2 3 4 4 4 2 0 -1 -1 1 2 1 1 1 2 2 1 1 2 2 1 1 2 2 1 2 1 1
-0 1 0 0 1 1 -1 0 1 -0 1 2 0 0 1 -1 2 2 1 2 1 0 -1 -2 -0 -0 -0 -1 0 2 2 1 2 1 1 1 2 1 -0 -2 2 2 2 1

GFSNW_925_temp_123.txt.gz
Temp
8 9 10 10 9 10 8 7 8 9 9 7 4 5 10 12 11 11 11 12 12 11 11 11 11 11 12 12 11 12 10 9 8 11 10 10 10 10 9 11 10 8 9 12
9 9 10 10 11 9 9 7 7 9 8 7 5 10 11 11 12 12 12 12 13 12 11 11 11 11 11 11 12 11 11 9 8 10 10 10 10 9 9 8 8 9 10 14
9 9 10 11 11 11 10 6 8 7 5 5 9 11 11 12 11 12 12 12 12 12 12 10 10 11 11 11 11 11 11 8 10 11 12 9 10 9 8 10 8 9 9 10
9 9 10 11 11 11 10 4 6 6 7 9 9 10 11 12 12 11 10 12 11 12 12 11 10 10 10 10 11 9 9 10 7 8 8 10 10 10 8 9 10 11 11 8
9 9 9 10 10 9 10 8 8 4 6 7 10 10 11 11 11 11 12 12 11 11 11 12 11 10 10 11 9 10 7 9 8 5 9 7 8 8 8 9 10 9 10 11
8 9 9 10 10 9 8 5 6 7 6 7 9 9 11 11 11 11 11 11 10 11 11 10 9 8 7 9 9 8 8 7 7 8 7 8 9 8 8 8 8 10 10 12
8 8 9 9 10 10 9 7 6 8 10 7 8 10 10 11 11 12 11 10 12 9 7 6 7 6 6 7 6 6 7 7 5 5 7 10 13 9 9 9 9 8 9 10
8 8 9 9 9 10 10 8 7 6 9 6 9 10 10 10 9 10 10 10 8 7 8 8 9 7 9 7 5 7 6 6 6 6 6 9 13 11 10 11 13 9 9 9
8 8 8 9 9 9 9 8 8 5 7 8 10 9 9 8 8 8 9 8 7 7 6 8 10 10 10 8 8 5 5 5 7 6 9 14 13 12 10 11 12 12 9 10
8 8 8 8 9 9 9 8 7 7 6 6 8 8 8 6 6 7 7 8 8 7 7 9 8 7 8 9 8 6 6 6 7 7 7 8 9 10 10 14 13 11 11 9
8 8 8 8 8 9 9 8 8 7 4 5 7 8 7 6 6 8 6 7 7 5 8 8 7 7 6 8 7 6 6 6 6 7 7 9 8 10 14 11 9 9 8 9
8 7 7 7 8 8 9 8 7 7 5 6 6 6 6 7 7 5 4 7 6 6 6 5 5 7 4 6 10 5 8 8 7 7 8 9 9 11 9 8 8 7 7 7
7 7 7 7 7 7 8 7 6 6 4 5 5 5 6 6 7 7 7 4 5 5 4 4 5 8 6 7 6 7 6 6 8 9 8 9 9 8 8 8 7 6 5 5
7 7 7 7 7 7 7 7 6 6 4 6 6 5 5 5 6 6 6 6 5 4 4 6 6 8 6 7 7 6 7 6 7 7 9 8 8 8 6 5 5 4 4 4
7 7 7 7 7 7 7 6 6 6 6 6 5 4 4 5 5 5 6 6 4 4 5 5 6 4 5 3 4 4 5 7 8 8 7 8 7 6 5 5 5 4 3 3
7 6 7 7 7 7 6 4 5 5 5 3 4 3 3 4 4 4 3 4 2 3 5 5 4 4 5 5 6 7 5 5 6 7 6 5 5 4 5 4 4 4 3 3
7 7 6 6 6 7 6 5 5 5 5 3 4 2 2 3 3 1 1 2 1 3 3 3 3 4 4 4 5 7 6 7 6 6 5 7 6 5 3 3 3 3 3 3
7 6 6 6 6 6 5 4 5 5 4 2 0 2 2 3 2 2 -0 2 1 2 2 2 3 3 2 4 5 6 7 5 5 5 4 4 3 2 3 3 2 2 2 2
6 6 6 6 5 4 4 4 4 4 4 2 3 3 2 1 1 1 1 1 2 1 3 2 3 4 4 5 5 7 6 6 6 3 3 3 3 2 1 1 2 1 2 1
5 6 5 3 3 3 3 3 2 1 0 0 4 2 3 1 1 2 2 1 2 1 3 1 3 4 4 5 4 4 4 4 3 5 5 4 2 2 1 1 0 -0 -0 1
5 4 3 2 3 3 2 2 2 2 3 3 3 2 2 0 2 3 2 2 2 5 2 4 5 4 4 4 4 3 3 4 3 2 2 1 0 -0 0 1 1 1 2 1
6 5 3 3 3 3 1 0 2 3 3 1 2 2 1 1 -0 2 2 2 3 4 1 4 4 3 4 4 5 4 3 4 3 3 1 2 2 2 1 1 1 2 3 3
5 4 2 2 1 3 2 0 3 4 3 -1 1 0 1 0 1 1 2 4 4 0 3 4 2 3 3 3 3 3 4 3 2 2 3 4 3 4 2 1 2 3 2 3
3 3 3 2 2 -0 1 -0 0 -0 -2 -2 0 -1 0 0 1 1 1 3 2 3 3 2 1 2 3 2 1 1 2 1 0 0 2 2 1 1 2 2 2 2 0 1
2 3 3 2 0 -1 0 -1 -0 -1 -1 -1 -0 -1 0 0 1 3 3 2 4 4 2 1 -1 1 2 2 2 1 0 0 -0 2 1 1 1 0 0 1 2 2 1 0
1 1 1 1 1 -0 -0 -2 -2 -2 -1 -2 -0 -1 -0 1 3 3 4 4 3 2 -1 -2 -1 1 1 0 0 0 1 1 1 1 1 1 -0 -0 1 1 1 0 1 -0
-0 -0 1 1 0 1 -0 -0 0 -0 2 3 2 2 2 -1 2 2 0 2 1 -1 -2 -3 -0 1 0 -1 -1 -1 -0 -0 -0 0 -0 0 1 1 -1 -2 1 1 0 0

GFSNW_925_temp_126.txt.gz
Temp
8 9 10 10 10 9 9 9 13 9 10 13 11 12 12 12 13 12 12 13 14 14 13 13 14 14 14 13 14 15 13 15 14 14 13 13 14 15 16 18 15 15 16 20
9 9 10 10 11 10 9 13 12 10 9 14 13 12 12 12 13 13 13 14 14 14 13 14 13 13 12 13 13 14 14 14 14 14 13 12 13 14 14 14 15 15 18 21
9 9 10 11 11 11 10 12 14 14 12 10 14 14 13 13 12 13 13 13 14 14 14 13 13 13 12 12 13 11 13 14 15 18 15 15 13 13 13 15 15 17 17 19
9 9 9 10 11 10 9 10 11 10 14 14 13 13 13 13 14 13 13 14 14 14 14 13 13 12 12 12 11 12 14 14 11 13 12 13 13 14 13 13 16 16 17 15
9 9 9 9 10 10 9 13 13 9 11 10 13 12 13 13 13 13 14 14 13 13 15 15 14 13 13 14 12 12 11 12 11 11 11 11 12 13 14 13 14 15 15 15
9 9 9 10 10 9 9 5 6 12 8 11 13 14 13 13 12 12 12 13 13 13 12 12 11 11 12 13 13 13 12 12 12 14 11 12 13 13 13 13 13 14 14 17
8 8 9 10 10 10 9 7 8 13 14 12 13 11 12 12 12 13 12 12 13 10 10 10 11 11 11 11 10 11 12 12 11 12 12 15 14 12 13 13 14 13 14 15
8 8 9 9 10 10 9 8 8 12 14 11 11 11 12 11 11 12 12 10 10 10 11 12 12 11 11 10 9 10 11 12 12 13 13 15 14 12 12 14 15 13 13 14
8 8 8 9 9 10 9 8 8 9 13 13 11 12 11 13 12 11 10 9 8 10 11 13 13 15 13 11 10 8 10 11 13 11 13 18 17 13 12 13 16 13 13 14
7 8 8 8 9 9 9 8 8 8 11 10 10 12 12 10 10 12 10 9 10 9 12 13 13 13 11 13 12 10 11 11 12 12 13 15 14 12 12 16 15 13 12 12
7 7 8 8 8 9 9 8 8 8 9 8 7 8 9 8 10 13 9 10 9 10 12 13 13 13 12 11 11 11 11 11 11 11 11 14 12 11 14 13 12 12 12 11
7 7 7 7 8 8 8 8 7 7 8 8 6 6 6 6 8 10 7 10 10 12 12 10 10 11 9 12 15 8 12 13 13 13 15 12 11 12 11 11 10 10 9 9
7 7 7 7 7 7 8 7 7 6 7 7 7 7 6 6 6 6 10 8 8 8 8 10 11 12 11 13 12 11 10 9 12 10 11 11 12 10 10 9 9 8 8 7
7 7 7 7 7 7 7 7 6 6 6 10 8 5 5 5 5 6 6 7 6 7 7 10 11 11 9 12 10 11 11 9 11 11 11 11 10 10 8 8 8 7 7 6
7 7 7 7 7 7 7 7 6 6 7 10 8 4 4 4 5 5 5 6 7 8 9 9 10 9 8 7 7 9 9 11 12 14 11 12 12 10 8 8 7 7 6 6
6 6 6 7 7 6 6 6 6 6 6 7 9 4 4 3 4 4 4 5 6 7 9 9 7 6 8 9 10 10 9 9 10 11 9 9 9 8 7 6 6 6 6 6
7 7 6 6 6 6 6 7 5 5 5 6 8 6 4 3 3 3 4 3 5 6 7 7 7 7 7 8 9 9 9 9 8 8 7 8 7 8 6 6 5 5 4 5
7 6 6 6 6 6 5 4 5 5 5 4 6 6 5 3 5 5 2 5 5 5 6 5 6 6 5 7 8 8 8 8 8 7 6 6 5 6 6 5 5 6 7 6
6 6 6 5 5 4 4 4 4 4 5 6 4 7 7 3 3 3 4 3 6 3 5 5 5 6 6 8 8 8 8 8 8 6 7 7 6 6 6 5 6 6 6 6
5 5 5 4 3 3 3 3 4 4 3 3 5 4 5 4 4 4 5 4 5 6 5 4 4 6 7 7 7 7 6 6 6 7 6 5 5 5 5 5 5 4 5 5
5 4 4 2 3 3 3 4 4 4 4 4 4 4 4 2 6 6 4 5 5 5 5 5 6 6 6 5 5 5 5 5 5 5 4 4 4 3 4 4 4 4 3 4
6 4 3 3 3 3 4 3 3 3 5 3 3 3 3 3 2 5 3 5 4 5 4 5 5 6 5 5 5 4 5 5 5 4 4 4 3 4 3 3 3 3 3 3
4 3 3 3 3 4 3 3 4 4 4 2 2 3 3 2 3 3 4 4 5 3 4 5 6 5 5 5 5 5 4 4 4 4 4 4 3 3 2 2 3 3 3 3
2 3 3 4 3 4 4 3 4 3 2 2 3 2 3 2 3 3 3 4 3 4 4 5 5 5 5 5 5 4 5 4 3 2 3 2 2 2 2 2 2 2 2 2
2 3 4 3 3 1 1 1 2 0 2 2 2 2 3 3 3 4 3 3 4 5 5 5 4 4 5 5 4 4 4 4 3 3 2 1 1 1 1 1 1 1 1 1
1 1 2 1 3 1 1 1 2 -0 1 1 3 2 3 3 4 4 4 4 5 5 4 4 3 3 3 3 3 3 3 2 2 2 2 2 2 1 1 1 1 1 1 0
1 2 1 2 2 3 2 2 2 1 3 4 3 3 3 1 3 3 4 4 5 4 3 2 2 3 3 3 2 1 1 1 1 1 1 1 1 1 -0 -0 1 1 1 -0